Location: Pollockville
(51.1000°N, 111.5833°W)
Time: 06:22:49
(UTC+00:00)

N. Korean satellite - Visible Passes

Search period start: 27 November 2021 00:00
Search period end: 07 December 2021 00:00
Orbit: 447 x 495 km, 97.3° (Epoch: 26 November)

Date Brightness Start Highest point End Pass type
(mag) Time Alt. Az. Time Alt. Az. Time Alt. Az.
27 Nov 7.4 00:00:18 10° S 00:03:51 56° W 00:07:22 10° NNW visible
27 Nov 6.3 12:53:17 10° NNE 12:56:44 86° ESE 13:00:07 10° SSW visible
28 Nov 10.1 01:07:45 10° WSW 01:09:00 11° W 01:10:14 10° WNW visible
28 Nov 7.9 12:24:59 10° NNE 12:28:13 38° E 12:31:24 10° SSE visible
28 Nov 7.9 13:58:46 10° NNW 14:01:11 18° WNW 14:03:35 10° WSW visible
29 Nov 9.3 00:37:26 10° SSW 00:40:18 22° W 00:43:07 10° NW visible
29 Nov 9.2 11:57:05 10° NE 11:59:35 19° E 12:02:03 10° SE visible
29 Nov 7.0 13:29:46 10° N 13:32:55 35° WNW 13:36:01 10° SW visible
30 Nov 7.9 00:08:15 10° S 00:11:41 45° W 00:15:06 10° NNW visible
30 Nov 6.2 13:01:07 10° N 13:04:31 76° WNW 13:07:54 10° SSW visible
01 Dec 7.4 12:32:41 10° NNE 12:36:01 47° E 12:39:17 10° S visible
01 Dec 8.1 14:06:48 10° NNW 14:08:53 15° WNW 14:10:57 10° W visible
02 Dec 9.6 00:45:35 10° SW 00:48:08 18° W 00:50:40 10° NW visible
02 Dec 8.9 12:04:38 10° NE 12:07:23 22° E 12:10:07 10° SSE visible
02 Dec 7.2 13:37:38 10° N 13:40:37 29° WNW 13:43:34 10° SW visible
03 Dec 8.3 00:16:11 10° SSW 00:19:28 36° W 00:22:45 10° NNW visible
03 Dec 9.9 11:37:30 10° ENE 11:38:38 11° E 11:39:46 10° ESE visible
03 Dec 6.3 13:08:52 10° N 13:12:14 61° WNW 13:15:34 10° SSW visible
04 Dec 6.9 12:40:22 10° NNE 12:43:44 59° E 12:47:04 10° S visible
04 Dec 8.2 14:14:51 10° NNW 14:16:31 13° WNW 14:18:08 10° W visible
05 Dec 9.7 00:53:46 10° SW 00:55:54 15° W 00:58:01 10° NW visible
05 Dec 8.5 12:12:09 10° NE 12:15:07 27° E 12:18:03 10° SSE visible
05 Dec 7.5 13:45:27 10° N 13:48:15 24° WNW 13:51:01 10° WSW visible
06 Dec 8.7 00:24:04 10° SSW 00:27:11 29° W 00:30:17 10° NNW visible
06 Dec 9.6 11:44:34 10° ENE 11:46:23 14° E 11:48:11 10° ESE visible
06 Dec 6.5 13:16:34 10° N 13:19:52 48° WNW 13:23:08 10° SSW visible
